User: anonymous   Login
Location: Unspecified
(0.0000°N, 0.0000°E)
Time: 15:23:21
(UTC+00:00)
Language:

KEPLER-O (KIPP) - Orbit

View from above orbital plane
View from above orbital plane
View from above satellite
View from above satellite

Ground track
Ground track

The orbit data is extracted from the following two-line orbital elements,

1 43157U 18008C   22279.72882086  .00017293  00000-0  88678-3 0  9992
2 43157  97.3509 334.6513 0015397 113.8172 246.4677 15.16510268260029
Epoch (UTC): 06 October 2022 17:29:30
Eccentricity: 0.0015397
inclination: 97.3509°
perigee height: 506 km
apogee height: 527 km
right ascension of ascending node: 334.6513°
argument of perigee: 113.8172°
revolutions per day: 15.16510268
mean anomaly at epoch: 246.4677°
orbit number at epoch: 26002

The dashed part of the orbit path shows where the satellite is in the earth's shadow,  

DLR